Date String (YYYY-MM-DD hh:mm:ss) UTC,Instrument flags,absolute air pressure of the measurement (hPa),sample flow rate (lpm),inlet stack bypass flow (lpm),air temperature of the measurement (°C),ambient temperature measured by the external sensor (°C),aerosol sample conditioner tube jacket temperature (°C),OPC LED temperature (°C),internal box temperature (°C),relative humidity of the measurement (%),span deviation,mass concentration of particles derived from Lorenz-Mie calculation of OPC scattering (μg/m³),mass concentration of particles derived from Lorenz-Mie calculation of OPC scattering (μg/m³),mass concentration of particles derived from Lorenz-Mie calculation of OPC scattering (μg/m³)
DateTimeUTC,F1_M11,P_M11,Q1_M11,Q2_M11,T1_M11,T2_M11,T3_M11,T4_M11,T5_M11,U1_M11,ZSPAN_M11,X0_M11,X2_M11,X1_M11
2024-06-02 06:00:00,SystemResetWarning,0826.5,5.00,000.00,029.9,028.6,000.0,038.4,031.4,018.2,0000.0,0015.45,0004.40,0003.20
2024-06-02 06:01:00,SystemResetWarning,0826.6,4.99,000.00,029.9,028.8,000.0,038.4,031.5,017.6,0000.0,0015.77,0004.35,0003.18
2024-06-02 06:02:00,SystemResetWarning,0826.6,5.00,000.00,029.9,028.9,000.0,038.4,031.6,017.5,0000.0,0015.48,0004.30,0003.17
2024-06-02 06:03:00,SystemResetWarning,0826.4,5.00,000.00,030.0,029.0,000.0,038.4,031.6,017.4,0000.0,0014.76,0004.26,0003.16
2024-06-02 06:04:00,SystemResetWarning,0826.4,5.00,000.00,030.0,029.2,000.0,038.4,031.7,017.4,0000.0,0014.09,0004.23,0003.15
2024-06-02 06:05:00,SystemResetWarning,0826.4,5.00,000.00,030.0,029.3,000.0,038.4,031.7,017.4,0000.0,0014.44,0004.16,0003.13
2024-06-02 06:06:00,SystemResetWarning,0826.3,5.00,000.00,030.1,029.3,000.0,038.4,031.8,017.2,0000.0,0013.11,0004.11,0003.12
2024-06-02 06:07:00,SystemResetWarning,0826.3,5.00,000.00,030.1,029.4,000.0,038.4,031.8,017.0,0000.0,0013.21,0004.07,0003.10
2024-06-02 06:08:00,SystemResetWarning,0826.3,4.99,000.00,030.1,029.5,000.0,038.4,031.9,016.9,0000.0,0013.44,0004.05,0003.07
2024-06-02 06:09:00,SystemResetWarning,0826.2,4.99,000.00,030.2,029.5,000.0,038.5,031.9,017.0,0000.0,0013.59,0004.01,0003.02
2024-06-02 06:10:00,SystemResetWarning,0826.2,5.00,000.00,030.2,029.6,000.0,038.5,031.9,017.0,0000.0,0012.91,0003.90,0002.98
2024-06-02 06:11:00,SystemResetWarning,0826.3,5.00,000.00,030.2,029.6,000.0,038.5,032.0,016.7,0000.0,0012.42,0003.84,0002.96
2024-06-02 06:12:00,SystemResetWarning,0826.4,5.00,000.00,030.3,029.7,000.0,038.5,032.0,016.7,0000.0,0012.34,0003.85,0002.96
2024-06-02 06:13:00,SystemResetWarning,0826.4,5.00,000.00,030.3,029.7,000.0,038.5,032.1,016.7,0000.0,0012.40,0003.84,0002.95
2024-06-02 06:14:00,SystemResetWarning,0826.4,5.00,000.00,030.3,029.8,000.0,038.6,032.1,016.8,0000.0,0012.86,0003.82,0002.94
2024-06-02 06:15:00,SystemResetWarning,0826.4,5.00,000.00,030.4,029.8,000.0,038.6,032.1,016.9,0000.0,0013.41,0003.83,0002.94
2024-06-02 06:16:00,SystemResetWarning,0826.4,4.98,000.00,030.4,029.8,000.0,038.6,032.1,016.7,0000.0,0012.68,0003.85,0002.95
2024-06-02 06:17:00,SystemResetWarning,0826.4,5.01,000.00,030.4,029.9,000.0,038.7,032.2,016.7,0000.0,0012.60,0003.86,0002.95
2024-06-02 06:18:00,SystemResetWarning,0826.3,5.01,000.00,030.5,029.9,000.0,038.7,032.2,016.8,0000.0,0013.39,0003.89,0002.97
2024-06-02 06:19:00,SystemResetWarning,0826.4,5.01,000.00,030.5,029.9,000.0,038.7,032.2,016.7,0000.0,0013.76,0003.89,0002.98
2024-06-02 06:20:00,SystemResetWarning,0826.4,4.99,000.00,030.5,030.0,000.0,038.7,032.3,016.7,0000.0,0014.32,0003.92,0003.00
2024-06-02 06:21:00,SystemResetWarning,0826.4,4.99,000.00,030.6,030.0,000.0,038.8,032.3,016.8,0000.0,0014.50,0003.93,0003.00
2024-06-02 06:22:00,SystemResetWarning,0826.4,5.00,000.00,030.6,030.0,000.0,038.8,032.3,016.8,0000.0,0013.97,0003.94,0002.99
2024-06-02 06:23:00,SystemResetWarning,0826.4,5.00,000.00,030.6,030.0,000.0,038.8,032.3,016.9,0000.0,0013.27,0003.89,0002.98
2024-06-02 06:24:00,SystemResetWarning,0826.5,5.00,000.00,030.6,030.1,000.0,038.8,032.3,016.9,0000.0,0013.04,0003.94,0003.00
2024-06-02 06:25:00,SystemResetWarning,0826.5,5.00,000.00,030.7,030.1,000.0,038.9,032.4,016.9,0000.0,0013.18,0004.03,0003.02
2024-06-02 06:26:00,SystemResetWarning,0826.5,5.01,000.00,030.7,030.1,000.0,038.9,032.4,016.9,0000.0,0012.84,0004.06,0003.03
2024-06-02 06:27:00,SystemResetWarning,0826.4,5.00,000.00,030.7,030.1,000.0,038.9,032.4,017.0,0000.0,0012.74,0004.09,0003.06
2024-06-02 06:28:00,SystemResetWarning,0826.4,5.00,000.00,030.7,030.1,000.0,038.9,032.4,017.1,0000.0,0013.22,0004.13,0003.07
2024-06-02 06:29:00,SystemResetWarning,0826.5,5.00,000.00,030.8,030.2,000.0,039.0,032.4,017.4,0000.0,0012.64,0004.11,0003.07
2024-06-02 06:30:00,SystemResetWarning,0826.6,5.00,000.00,030.8,030.2,000.0,039.0,032.5,017.7,0000.0,0012.81,0004.10,0003.07
2024-06-02 06:31:00,SystemResetWarning,0826.7,5.00,000.00,030.8,030.2,000.0,039.0,032.5,018.4,0000.0,0013.32,0004.07,0003.07
2024-06-02 06:32:00,SystemResetWarning,0826.6,5.00,000.00,030.8,030.2,000.0,039.0,032.5,018.5,0000.0,0013.28,0004.08,0003.08
2024-06-02 06:33:00,SystemResetWarning,0826.6,5.00,000.00,030.8,030.2,000.0,039.1,032.5,018.5,0000.0,0013.24,0004.13,0003.10
2024-06-02 06:34:00,SystemResetWarning,0826.6,5.00,000.00,030.8,030.2,000.0,039.1,032.5,018.2,0000.0,0013.30,0004.20,0003.10
2024-06-02 06:35:00,SystemResetWarning,0826.6,5.01,000.00,030.9,030.2,000.0,039.1,032.6,017.9,0000.0,0013.30,0004.20,0003.10
2024-06-02 06:36:00,SystemResetWarning,0826.6,5.00,000.00,030.9,030.3,000.0,039.1,032.6,017.4,0000.0,0012.80,0004.12,0003.11
2024-06-02 06:37:00,SystemResetWarning,0826.6,5.00,000.00,030.9,030.3,000.0,039.2,032.6,017.4,0000.0,0013.46,0004.13,0003.11
2024-06-02 06:38:00,SystemResetWarning,0826.8,5.00,000.00,030.9,030.3,000.0,039.2,032.6,016.8,0000.0,0013.76,0004.15,0003.10
2024-06-02 06:39:00,SystemResetWarning,0826.8,5.00,000.00,030.9,030.3,000.0,039.2,032.6,016.9,0000.0,0013.82,0004.17,0003.08
2024-06-02 06:40:00,SystemResetWarning,0826.8,5.01,000.00,031.0,030.3,000.0,039.2,032.6,017.0,0000.0,0014.00,0004.16,0003.07
2024-06-02 06:41:00,SystemResetWarning,0826.8,4.99,000.00,031.0,030.3,000.0,039.2,032.7,017.1,0000.0,0013.69,0004.15,0003.07
2024-06-02 06:42:00,SystemResetWarning,0826.8,5.00,000.00,031.0,030.3,000.0,039.2,032.7,017.1,0000.0,0012.87,0004.21,0003.07
2024-06-02 06:43:00,SystemResetWarning,0826.8,5.00,000.00,031.0,030.4,000.0,039.3,032.7,016.7,0000.0,0013.00,0004.21,0003.07
2024-06-02 06:44:00,SystemResetWarning,0826.8,5.01,000.00,031.0,030.4,000.0,039.3,032.7,016.6,0000.0,0013.16,0004.20,0003.05
2024-06-02 06:45:00,SystemResetWarning,0826.8,5.01,000.00,031.0,030.4,000.0,039.3,032.7,016.6,0000.0,0013.97,0004.18,0003.05
2024-06-02 06:46:00,SystemResetWarning,0826.8,4.99,000.00,031.1,030.4,000.0,039.3,032.7,016.6,0000.0,0013.96,0004.17,0003.04
2024-06-02 06:47:00,SystemResetWarning,0826.7,5.00,000.00,031.1,030.4,000.0,039.3,032.8,016.5,0000.0,0013.87,0004.15,0003.00
2024-06-02 06:48:00,SystemResetWarning,0826.7,4.99,000.00,031.1,030.4,000.0,039.4,032.8,016.8,0000.0,0013.45,0004.14,0003.00
2024-06-02 06:49:00,SystemResetWarning,0826.7,4.99,000.00,031.1,030.4,000.0,039.4,032.8,016.9,0000.0,0013.61,0004.12,0003.02
2024-06-02 06:50:00,SystemResetWarning,0826.8,5.00,000.00,031.1,030.4,000.0,039.4,032.8,017.0,0000.0,0014.26,0004.10,0003.04
2024-06-02 06:51:00,SystemResetWarning,0826.8,5.00,000.00,031.1,030.4,000.0,039.4,032.8,016.9,0000.0,0014.02,0004.14,0003.05
2024-06-02 06:52:00,SystemResetWarning,0826.8,5.00,000.00,031.1,030.5,000.0,039.4,032.8,016.8,0000.0,0014.64,0004.16,0003.06
2024-06-02 06:53:00,SystemResetWarning,0826.8,5.00,000.00,031.1,030.5,000.0,039.4,032.8,016.9,0000.0,0014.76,0004.10,0003.04
2024-06-02 06:54:00,SystemResetWarning,0826.8,5.00,000.00,031.2,030.5,000.0,039.4,032.8,016.8,0000.0,0014.75,0004.10,0003.05
2024-06-02 06:55:00,SystemResetWarning,0826.8,5.00,000.00,031.2,030.5,000.0,039.5,032.8,017.0,0000.0,0014.55,0004.09,0003.06
2024-06-02 06:56:00,SystemResetWarning,0826.8,5.00,000.00,031.2,030.5,000.0,039.5,032.8,016.9,0000.0,0014.31,0004.10,0003.07
2024-06-02 06:57:00,SystemResetWarning,0826.8,5.00,000.00,031.2,030.5,000.0,039.5,032.9,016.9,0000.0,0014.37,0004.05,0003.08
2024-06-02 06:58:00,SystemResetWarning,0826.8,5.01,000.00,031.2,030.5,000.0,039.5,032.9,016.9,0000.0,0014.68,0004.11,0003.10
2024-06-02 06:59:00,SystemResetWarning,0826.8,5.01,000.00,031.2,030.5,000.0,039.5,032.9,017.3,0000.0,0014.17,0004.09,0003.10
